Regional Weather Roundup
Issued by NWS New Orleans/Baton Rouge, LA

Home | Current Version | Previous Version | Graphics & Text | Print | Product List | Glossary On
Versions: 1 2 3 4 5 6 7 8 9 10 11 12 13 14 15 16 17 18 19 20 21 22 23 24 25 26 27 28 29 30 31 32 33 34 35 36 37 38 39 40 41 42 43 44 45 46 47 48 49 50
501
ASUS44 KLIX 262105
RWRLIX
NEW ORLEANS REGIONAL WEATHER ROUNDUP
NATIONAL WEATHER SERVICE NEW ORLEANS LA
300 PM CST MON JAN 26 2015

NOTE: "FAIR" INDICATES FEW OR NO CLOUDS BELOW 12,000 FEET WITH NO
      SIGNIFICANT WEATHER AND/OR OBSTRUCTIONS TO VISIBILITY.
      SKY/WX - SKY CONDITION AND SIGNIFICANT WEATHER.
      TMP - AIR TEMPERATURE.     DP    - DEWPOINT TEMPERATURE.
      RH  - RELATIVE HUMIDITY.   PRES  - PRESSURE.
      HI  - HEAT INDEX.          WCI   - WIND CHILL INDEX.

*  THESE STATIONS ARE NOT NWS OR FAA STATIONS AND ARE NOT UNDER
   NWS QUALITY CONTROL.

LAZ038-040-048-061>063-065>067-069-262200-
SOUTHEAST LOUISIANA

CITY           SKY/WX    TMP DP  RH WIND       PRES   REMARKS
N.O. AUDUBON     N/A     60  40  47 MISG        N/A
N.O. INTL ARPT MOSUNNY   61  34  36 NW13      30.06F
N.O. LAKEFRONT SUNNY     57  44  62 W10       30.06S
N.O. DOWNTOWN*   N/A     61  34  36 W6        30.06S
SLIDELL        SUNNY     65  32  29 N12       30.03F
BATON ROUGE    SUNNY     62  30  29 NW7       30.07S
BOOTHVILLE     SUNNY     58  38  47 NW12      30.06F
BELLE CHASSE   MOSUNNY   61  32  33 VRB7G16   30.05F
BOGALUSA*        N/A     62  31  31 N13       30.05F
GALLIANO*      CLEAR     65  34  32 MISG      30.06F
NEW ROADS*       N/A     58  36  42 NW9       30.09S
GONZALES*        N/A     62  36  37 W7        30.06S
HAMMOND*       SUNNY     63  28  27 N13       30.06F
HOUMA*         SUNNY     63  37  39 NW8       30.06F
PORT FOURCHON* CLEAR     55  43  62 W15G21    30.11S

$$

MSZ070-080>082-262200-
SOUTHERN MISSISSIPPI

CITY           SKY/WX    TMP DP  RH WIND       PRES   REMARKS
MCCOMB         SUNNY     59  32  36 NW13      30.06F
GULFPORT       SUNNY     61  32  33 NW13G24   30.01S
BILOXI         SUNNY     61  34  35 N13G21    30.00F
PASCAGOULA     SUNNY     60  33  36 N13G23    30.01S
STENNIS ARPT*  SUNNY     61  25  25 N12       30.03S

$$

COASTAL OBSERVATIONS
LAKE AND NEARSHORE STATIONS

STATION/POSITION TIME  TEMP    WIND        PRES    WAVE
                       AIR SEA DIR/SP/G            HT/PER
                 (UTC) (F)     (DEG/KT/KT) (MB)    (FT/S)
PASCAGOULA       2100   60     310/ 12/ 18 1015.5
WAVELAND YACHT   2100   59     330/ 14/ 17 1015.8
GRAND ISLE       2100   56 57  310/  4/  5 1018.6
SOUTHWEST PASS   2100   60 46  310/ 10/ 18 1018.6
NEW CANAL        2100   56 54  270/  5/  7 1018.2
SHELL BEACH      2100   56 54  300/ 14/ 15 1017.2

OFFSHORE STATIONS

STATION/POSITION TIME  TEMP    WIND        PRES    WAVE
                       AIR SEA DIR/SP/G            HT/PER
                 (UTC) (F)     (DEG/KT/KT) (MB)    (FT/S)
64 S DAUPHIN ISL 2030   54 70  310/ 17/ 23 1017.0    6/ 8

$$




USA.gov is the U.S. government's official web portal to all federal, state and local government web resources and services.